FW3899 Weather Reports


Display with metric or nautical units.
time (UTC)temp
F
wind
direction
speed
MPH
gust
MPH
rain 1hr
in
rain 24hr
in
rain mn
in
humidity
%
barometer
mb
20260906231543 63 233 0.0 2.0 0.00 0.00 0.00 81 1021.5
20260906230034 63 234 1.0 3.0 0.00 0.00 0.00 81 1021.3
20260906224527 63 256 0.0 0.0 0.00 0.00 0.00 80 1021.3
20260906223024 64 256 0.0 2.0 0.00 0.00 0.00 79 1021.5
20260906221529 64 177 0.0 3.0 0.00 0.00 0.00 78 1021.4
20260906220018 65 176 0.0 0.0 0.00 0.00 0.00 76 1021.3
20260906214521 67 176 0.0 2.0 0.00 0.00 0.00 73 1021.4
20260906213018 67 176 0.0 2.0 0.00 0.00 0.00 72 1021.4
20260906211527 67 178 1.0 3.0 0.00 0.00 0.00 72 1021.4
20260906210028 67 172 1.0 4.0 0.00 0.00 0.00 72 1021.4
20260906204517 68 167 2.0 4.0 0.00 0.00 0.00 71 1021.4
20260906203020 68 176 2.0 3.0 0.00 0.00 0.00 72 1021.6
20260906201516 68 176 2.0 4.0 0.00 0.00 0.00 72 1021.5
20260906200030 68 180 1.0 4.0 0.00 0.00 0.00 72 1021.6
20260906194515 67 184 2.0 3.0 0.00 0.00 0.00 73 1021.6
20260906193015 67 185 0.0 3.0 0.00 0.00 0.00 73 1021.6
20260906191514 67 185 0.0 0.0 0.00 0.00 0.00 73 1021.5
20260906190013 67 189 1.0 3.0 0.00 0.00 0.00 74 1021.6
20260906184513 67 190 1.0 3.0 0.00 0.00 0.00 74 1021.5
20260906183026 67 190 1.0 3.0 0.00 0.00 0.00 73 1021.4
20260906181512 68 190 1.0 3.0 0.00 0.00 0.00 72 1021.3
20260906180021 70 189 2.0 3.0 0.00 0.00 0.00 70 1021.2
20260906174511 73 190 1.0 2.0 0.00 0.00 0.00 67 1021.3
20260906173016 76 184 0.0 0.0 0.00 0.00 0.00 62 1021.4
20260906171510 78 184 1.0 3.0 0.00 0.00 0.00 60 1021.4
20260906170009 78 138 0.0 2.0 0.00 0.00 0.00 56 1021.4
20260906164513 78 91 1.0 3.0 0.00 0.00 0.00 56 1021.3
20260906163018 78 82 1.0 3.0 0.00 0.00 0.00 55 1021.2
20260906161507 78 79 1.0 4.0 0.00 0.00 0.00 56 1021.2
20260906160007 78 82 1.0 4.0 0.00 0.00 0.00 57 1021.2
20260906154510 78 99 2.0 7.0 0.00 0.00 0.00 56 1021.3
20260906153004 78 53 3.0 6.0 0.00 0.00 0.00 55 1021.3
20260906151502 78 55 3.0 6.0 0.00 0.00 0.00 55 1021.4
20260906150007 78 11 2.0 8.0 0.00 0.00 0.00 55 1021.5
20260906144502 78 83 2.0 7.0 0.00 0.00 0.00 56 1021.6
20260906143103 78 74 0.0 7.0 0.00 0.00 0.00 56 1021.6
20260906141613 78 87 3.0 9.0 0.00 0.00 0.00 57 1021.7
20260906140104 78 56 1.0 10.0 0.00 0.00 0.00 56 1021.7
20260906134559 78 60 4.0 11.0 0.00 0.00 0.00 57 1022.0
20260906133053 78 75 3.0 8.0 0.00 0.00 0.00 58 1022.1
20260906131552 78 51 4.0 9.0 0.00 0.00 0.00 59 1022.2
20260906130052 77 79 3.0 8.0 0.00 0.00 0.00 59 1022.4
20260906124549 77 120 3.0 9.0 0.00 0.00 0.00 60 1022.6
20260906123044 76 47 4.0 10.0 0.00 0.00 0.00 62 1022.7
20260906121542 76 66 5.0 11.0 0.00 0.00 0.00 63 1022.7
20260906120047 75 36 0.0 9.0 0.00 0.00 0.00 62 1022.8
20260906114540 75 63 4.0 8.0 0.00 0.00 0.00 63 1022.9
20260906113035 74 64 3.0 9.0 0.00 0.00 0.00 63 1023.0
20260906111534 74 49 7.0 12.0 0.00 0.00 0.00 65 1023.1
20260906110039 73 49 6.0 10.0 0.00 0.00 0.00 66 1023.2
20260906104527 72 61 3.0 11.0 0.00 0.00 0.00 68 1023.1
20260906103023 72 67 6.0 10.0 0.00 0.00 0.00 69 1023.3
20260906101521 71 70 6.0 12.0 0.00 0.00 0.00 69 1023.5
20260906100019 71 107 6.0 12.0 0.00 0.00 0.00 71 1023.7
20260906094527 71 286 0.0 6.0 0.00 0.00 0.00 71 1023.8
20260906093015 71 60 2.0 7.0 0.00 0.00 0.00 69 1023.8
20260906091510 71 75 1.0 6.0 0.00 0.00 0.00 68 1023.8
20260906090005 69 18 1.0 4.0 0.00 0.00 0.00 71 1024.1
20260906084501 68 7 3.0 7.0 0.00 0.00 0.00 72 1024.1
20260906083057 67 55 3.0 7.0 0.00 0.00 0.00 71 1024.1
20260906081556 67 59 1.0 5.0 0.00 0.00 0.00 72 1024.2
20260906080053 68 331 1.0 3.0 0.00 0.00 0.00 72 1024.2
20260906074545 67 30 1.0 5.0 0.00 0.00 0.00 73 1024.1
20260906073039 66 50 1.0 5.0 0.00 0.00 0.00 75 1024.2
20260906071535 64 338 2.0 4.0 0.00 0.00 0.00 79 1024.1
20260906070031 63 302 1.0 3.0 0.00 0.00 0.00 79 1024.2
20260906064526 62 293 2.0 4.0 0.00 0.00 0.00 80 1024.3
20260906063028 60 293 2.0 4.0 0.00 0.00 0.00 80 1024.2
20260906061524 59 285 2.0 4.0 0.00 0.00 0.00 83 1024.1
20260906060013 58 289 2.0 4.0 0.00 0.00 0.00 85 1023.9
20260906054508 57 297 2.0 4.0 0.00 0.00 0.00 90 1023.8
20260906053004 56 285 2.0 4.0 0.00 0.00 0.00 93 1023.7
20260906051500 55 266 0.0 0.0 0.00 0.00 0.00 93 1023.6
20260906050118 55 266 0.0 0.0 0.00 0.00 0.00 93 1023.6
20260906044557 55 267 0.0 0.0 0.00 0.00 0.00 93 1023.4
20260906043058 55 277 0.0 0.0 0.00 0.00 0.00 93 1023.5
20260906041556 56 300 0.0 3.0 0.00 0.00 0.00 94 1023.5
20260906040121 56 311 0.0 3.0 0.00 0.00 0.00 94 1023.5
20260906034603 56 297 0.0 1.0 0.00 0.00 0.00 94 1023.7
20260906033054 55 272 0.0 0.0 0.00 0.00 0.00 93 1023.8
20260906031600 55 272 0.0 0.0 0.00 0.00 0.00 93 1023.7
20260906030052 56 272 0.0 0.0 0.00 0.00 0.00 93 1023.7
20260906024548 56 272 0.0 0.0 0.00 0.00 0.00 92 1023.7
20260906023050 57 272 0.0 0.0 0.00 0.00 0.00 92 1023.6
20260906021552 58 272 0.0 2.0 0.00 0.00 0.00 92 1023.5
20260906020052 58 272 0.0 0.0 0.00 0.00 0.00 93 1023.4
20260906014551 58 272 1.0 2.0 0.00 0.00 0.00 92 1023.4
20260906013040 59 272 2.0 4.0 0.00 0.00 0.00 93 1023.3
20260906011538 59 293 0.0 0.0 0.00 0.00 0.00 92 1023.2
20260906010037 59 293 0.0 1.0 0.00 0.00 0.00 92 1023.3
20260906004536 59 293 1.0 4.0 0.00 0.00 0.00 92 1023.3
20260906003035 59 301 2.0 3.0 0.00 0.00 0.00 90 1023.5
20260906001534 59 211 1.0 3.0 0.00 0.00 0.00 89 1023.6
20260906000032 59 210 0.0 0.0 0.00 0.00 0.00 90 1023.6
20260905234530 59 210 0.0 2.0 0.00 0.00 0.00 90 1023.7
20260905233032 60 210 0.0 0.0 0.00 0.00 0.00 91 1023.7